Location: Saluda
(35.2377°N, 82.3468°W)
Time: 16:30:36
(UTC+00:00)

Transit 2A - Pass Details

Date: 08 October 2022
Orbit: 598 x 959 km, 66.7° (Epoch: 06 December)

Event Time Altitude Azimuth Distance (km) Brightness Sun altitude
Rises 02:40:37 0° 202° (SSW) 2,961 - -43.6°
Reaches altitude 10° 02:42:57 10° 201° (SSW) 2,013 - -44.0°
Maximum altitude 02:47:26 79° 116° (ESE) 625 - -44.8°
Drops below altitude 10° 02:51:45 10° 29° (NNE) 1,940 - -45.5°
Sets 02:53:58 0° 29° (NNE) 2,844 - -45.9°
